Location: Anjeux
(47.8815°N, 6.2076°E)
Time: 16:05:26
(UTC+00:00)

Cosmos 1470 Rocket - Pass Details

Date: 05 March 2021
Orbit: 603 x 634 km, 82.5° (Epoch: 17 April)

Event Time Altitude Azimuth Distance (km) Brightness Sun altitude
Rises 04:57:33 0° 353° (N) 2,898 7.0 -12.7°
Reaches altitude 10° 04:59:50 10° 358° (N) 1,983 6.2 -12.3°
Maximum altitude 05:04:09 58° 78° (ENE) 714 4.2 -11.5°
Drops below altitude 10° 05:08:25 10° 158° (SSE) 1,951 6.4 -10.8°
Sets 05:10:38 0° 162° (SSE) 2,847 7.2 -10.5°
